Flag for Madagascar Weather past 2 weeks in Antananarivo, Madagascar

Now
75 °F

Scattered clouds.


Feels Like: 77 °F
Forecast: 54 / 80 °F
Wind: 10 mph from East

Location: Antananarivo / Ivato


UV Index: 7 (High)

Visibility: N/A


Pressure: 30.07 "Hg

Humidity: 69%

Dew point: 64 °F

Location of AntananarivoLocation

Historic Weather in Antananarivo

°F

Antananarivo temperature yesterday

Maximum temperature yesterday: 79 °F (at 1:00 PM)
Minimum temperature yesterday: 61 °F (at 4:30 AM)
Average temperature yesterday: 69 °F

Past Weeks' High & Low Weather Summary

 TemperatureHumidityPressure
High84 °F (Apr 21, 2:30 PM)100% (Apr 6, 10:30 PM)30.36 "Hg (Apr 6, 10:30 PM)
Low55 °F (Apr 10, 10:30 PM)54% (Apr 8, 1:00 PM)30.01 "Hg (Apr 6, 4:00 PM)
Average67 °F87%30.20 "Hg
* Reported Apr 6 4:00 PM — Apr 21 4:00 PM, Antananarivo, Weather by CustomWeather, © 2014

Note: Actual official high and low records may vary slightly from our data, if they occured in-between our weather recording intervals... More about our weather records

Advertising

Historic Weather Conditions — Data for Previous 24 hours

 ConditionsComfort  
Time TempWeatherWind HumidityBarometerVisibility
4:00 PM
Apr 21
77 °FScattered clouds.12 mph69%30.07 "HgN/A
3:30 PM79 °FScattered clouds.12 mph61%30.07 "HgN/A
3:00 PM82 °FScattered clouds.8 mph55%30.07 "HgN/A
2:30 PM84 °FScattered clouds.7 mph55%30.07 "HgN/A
2:00 PM82 °FPassing clouds.5 mph58%30.07 "HgN/A
1:30 PM82 °FPassing clouds.5 mph55%30.07 "HgN/A
1:00 PM81 °FPassing clouds.6 mph58%30.07 "HgN/A
12:30 PM81 °FPassing clouds.6 mph66%30.09 "HgN/A
12:00 PM81 °FPassing clouds.7 mph70%30.09 "HgN/A
11:30 AM79 °FPassing clouds.6 mph65%30.12 "HgN/A
11:00 AM77 °FPassing clouds.5 mph69%30.15 "HgN/A
10:30 AM72 °FScattered clouds.2 mph88%30.15 "HgN/A
10:00 AM72 °FScattered clouds.5 mph88%30.15 "HgN/A
9:30 AM66 °FScattered clouds.5 mph100%30.18 "HgN/A
9:00 AM64 °FPartly sunny.3 mph100%30.18 "Hg6 mi
8:30 AM61 °FBroken clouds.3 mph100%30.18 "Hg4 mi
8:00 AM61 °FFog.3 mph100%30.18 "Hg3 mi
7:30 AM59 °FFog.6 mph100%30.18 "Hg2 mi
7:00 AM59 °FFog.3 mph100%30.15 "Hg3 mi
6:00 AM59 °FFog.5 mph100%30.15 "Hg3 mi
5:30 AM59 °FPassing clouds.No wind100%30.15 "HgN/A
5:00 AM57 °FPassing clouds.No wind100%30.15 "HgN/A
4:00 AM59 °FPassing clouds.1 mph100%30.12 "HgN/A
3:30 AM57 °FPassing clouds.1 mph100%30.12 "HgN/A
3:00 AM59 °FPassing clouds.1 mph100%30.15 "HgN/A
2:30 AM59 °FPassing clouds.No wind100%30.15 "HgN/A
2:00 AM61 °FPassing clouds.3 mph100%30.15 "HgN/A
1:30 AM61 °FPassing clouds.3 mph100%30.15 "HgN/A
1:00 AM61 °FPassing clouds.3 mph100%30.18 "HgN/A
12:00 AM63 °FPassing clouds.3 mph100%30.18 "HgN/A
11:30 PM
Apr 20
63 °FPassing clouds.3 mph100%30.18 "HgN/A
11:00 PM63 °FPassing clouds.3 mph100%30.18 "HgN/A
10:30 PM64 °FPassing clouds.3 mph100%30.18 "HgN/A
10:00 PM63 °FPassing clouds.1 mph100%30.18 "HgN/A
9:30 PM64 °FPassing clouds.5 mph100%30.18 "HgN/A
9:00 PM64 °FPassing clouds.5 mph100%30.18 "HgN/A
8:30 PM66 °FMild.5 mph100%30.18 "HgN/A
8:00 PM66 °FThunderstorms. Passing clouds.5 mph100%30.15 "HgN/A
7:30 PM66 °FThunderstorms. Passing clouds.8 mph100%30.15 "HgN/A
7:00 PM68 °FThunderstorms. Passing clouds.12 mph94%30.15 "HgN/A
6:30 PM68 °FPassing clouds.12 mph88%30.15 "HgN/A
6:00 PM70 °FPassing clouds.9 mph83%30.12 "HgN/A
5:30 PM73 °FPartly sunny.8 mph74%30.12 "HgN/A
5:00 PM77 °FPartly sunny.9 mph69%30.12 "HgN/A
Weather by CustomWeather, © 2014

See weather overview